Погода в Сутуре

Погода в Сутуре : погода сейчас, прогноз погоды и архив. Всё, что Вы хотите узнать о погоде в Сутуре!

Поиск расширенной информации на нашем сайте:

Полезная информация: бухгалтерское обслуживание в строительстве

Другие новости

Новости СМИ2

Главная страница сайта

Новости сайта

02.10.2013

Напоминаем, что на нашем новом сайте вы можете получить высокодетализированные прогнозы погоды по пунктам России, СНГ и мира (включающие важные для авиации метеовеличины, такие как направление и скорость ветра, видимость, явления погоды, количество и форма облачности, нижняя и верхняя граница облачности), а также ознакомиться с разнообразными материалами по авиационной метеорологии и подборкой полезных ссылок на эту тему.

Сайт Метеоцентр.Азия посвящён разработке технологий оптимизации авиаметеорологического обслуживания, включая проектирование и перспективное создание нескольких автоматизированных авиаметеорологических систем:
- система выпуска высокодетальных прогностических карт явлений погоды для нижнего воздушного пространства по России и ближнему зарубежью;
- система верификации прогнозов TAF (выпускаемых синоптиками официальных АМСГ РФ и ближнего зарубежья) и AUTOTAF (выпускаемых сайтом Метеоцентр.Азия) - выявление ошибок, онлайн-сопоставление с фактической погодой METAR, автоматическое внесение коррективов в прогнозы при резком отклонении фактической погоды от прогноза, подсчёт оправдываемости прогнозов по элементам и в целом;
- система обработки, анализа и отображения авиаметеорологической информации для применения провайдерами метеорологической информации.

Рекомендуем: технические характеристики ВВГнг 4х150

Погода в Сутуре - сегодня

Время (UTC), дата Ветер
(°,м/с) 
Видим.   Явления Облачность Т
(°С)
Тd
(°С)
f(%) Тe
(°С)
Pmin
(гПа)
dP
(гПа)
Po
(мм)
O2
(г/м3)
Тmin Tmax R s Состояние
почвы
00 18.01.17 тихо ()   20000 м    10/0 средняя, верхняя 
[Ac As|Cs]
-19.9 -22.1 83 -20  1028.5  -0.4  737  322           
03 18.01.17 210 (ЮЗ) 10 км  слаб. снег  10/0 средняя 
[Ac As]
-17.4 -20.5 77 -18  1027.2  -0.8  736  318           
06 18.01.17 200 (Ю) 20000 м  {снег}  10/0 средняя 
[Ac As]
-14.7 -18 76 -15  1025.5  -1.2  735  314           
09 18.01.17 230 (ЮЗ) 20000 м    10/8 600 м средняя 
[Sc|Ac As]
-15 -17.7 80 -15  1025.5  735  315    -14.1  0.1     
12 18.01.17 340 (С) 20000 м    3/0 верхняя 
[Ci ing]
-17 -18.7 87 -17  1026.1  0.2  735  317           
15 18.01.17 350 (С) 20000 м    ясно 
-21.2 -23.2 84 -22  1026.9  735  323           
18 18.01.17 тихо ()   20000 м    8/0 верхняя 
[Ci]
-23.7 -25.9 82 -24  1027.6  0.2  736  326           
21 18.01.17 250 (З) 20000 м    10/0 средняя 
[Ac As]
-25.2 -27.9 78 -26  1027.8  735  328  -25.3      18  равномерный
сухой снег
100% 
00 19.01.17 200 (Ю) 20000 м    10/0 средняя 
[Ac As]
-25.1 -27.6 80 -26  1027.8  735  328           
03 19.01.17 230 (ЮЗ) 20000 м    6/0 средняя, верхняя 
[Ac lent|Ci fib]
-19.7 -22.4 79 -22  1025.9  -0.8  735  321           
06 19.01.17 210 (ЮЗ) 20000 м    6/0 верхняя 
[Ci fib]
-15.5 -21 63 -16  1023.5  -1.6  734  315           
09 19.01.17 290 (З) 20000 м    3/0 верхняя 
[Ci fib]
-19 -21.9 78 -19  1024.1  -0.1  734  319    -14.7       
12 19.01.17 тихо ()   20000 м    ясно 
-21.3 -24.1 78 -21  1024.6  734  322           
15 19.01.17 270 (З) 20000 м    ясно 
-24.1 -26.2 83 -25  1024.9  -0.2  734  326           
18 19.01.17 тихо ()   20000 м    ясно 
-26.6 -29.4 77 -27  1024.8  -0.6  733  329           
21 19.01.17 тихо ()   20000 м    10/0 средняя, верхняя 
[Ac lent|Ci fib]
-26.5 -29.3 77 -27  1024.5  -0.2  733  329  -27.8      18  равномерный
сухой снег
100% 
00 20.01.17 тихо ()   20000 м    10/0 средняя 
[Ac As]
-25.4 -28.1 78 -25  1024.8  0.5  733  328           
03 20.01.17 210 (ЮЗ) 20000 м    4/0 средняя, верхняя 
[Ac trans|Ci fib]
-21.5 -25.7 69 -24  1024  0.1  733  322           
06 20.01.17 210 (ЮЗ) 20000 м    3/0 средняя 
[Ac As]
-17.4 -23.4 59 -21  1022.8  -0.5  733  317           
09 20.01.17 200 (Ю) 20000 м    ясно 
-20 -24.1 70 -23  1024.3  734  321    -17.2       
12 20.01.17 тихо ()   20000 м    ясно 
-23.7 -25.9 82 -24  1025.9  0.9  734  326           
15 20.01.17 010 (С) 20000 м    ясно 
-27.4 -30.2 77 -28  1027  0.3  735  331           
18 20.01.17 360 (С) 20000 м    ясно верхняя 
[Ci]
-30.2 -33.3 74 -31  1028    735  335           
21 20.01.17 тихо ()   20000 м    ясно 
-32.2 -35.7 71 -32  1028.9  0.5  735  338  -32.2      18  равномерный
сухой снег
100% 
00 21.01.17 020 (С) 20000 м    ясно 
-32 -35.5 71 -33  1029.9  736  338  -32.8         
Время (UTC), дата Ветер
(°,м/с) 
Видим.   Явления Облачность Т
(°С)
Тd
(°С)
f(%) Тe
(°С)
Pmin
(гПа)
dP
(гПа)
Po
(мм)
O2
(г/м3)
Тmin Tmax R s Состояние
почвы

Для получения пояснительной информации подведите курсор к названию столбца.

ПОГОДА в Сутуре - архив

Всё, что Вы хотите узнать о погоде в Сутуре - удобно и подробно!

Выберите нужную дату (начиная с 1 января 2015* года) и нажмите кнопку "Найти".
Будут отображены архивные сводки погоды по пункту Сутур, начиная с указанной даты.


Отображать данные в формате CSV (для использования в таблицах Excel)


Внимание! Наш архив погоды предназначен исключительно для личного некоммерческого использования в познавательных целях. Если Вам необходимы официальные справки о состоянии погоды (для производственных, юридических, коммерческих и т.п. целей), обращайтесь в органы Росгидромета.

*Примечание: данная дата относится к архиву по метеостанциям СССР (Россия, СНГ, Балтия).
Архив по метеостанциям Зарубежной Европы и Азии (кроме Китая) хранится 10 дней, по другим регионам земного шара (Китай, Африка, Америка, Австралия, Океания) - 1 день.

Сутур - район местоположения метеостанции


Название, широта, долгота, высота метеостанции:
Сутур 50.1°ш. 132.1°д. 347 м над ур. моря [Российская Федерация]

Дополнительная информация

В oтличие oт бoльшинства пoгoдных сайтoв мы публикуем пoдрoбную метеoинфoрмацию в детальнoм прoфессиoнальнoм фoрмате.

Характеристики температуры и влажнoсти вoздуха измеряются на высoте 2 м в тени вдали oт зданий и деревьев.
Скoрoсть ветра измеряется на высoте 10 м (на урoвне рoста челoвека скoрoсть ветра ниже в 1.5-2 раза). Если метеoстанция нахoдится в гoрoде или в лесу, тo скoрoсть ветра занижена на 2-4 м/с пo сравнению с oткрытым местoм. Скoрoсть ветра над акватoриями крупных рек и oзёр, а также на вершинах хoлмoв на 2-5 м/с выше, чем в oбычных услoвиях.
Атмoсфернoе давление в разных тoчках местнoсти мoжет значительнo oтличаться oт давления на метеoстанции, в зависимoсти oт услoвий рельефа (при пoдъёме на 10 м давление пoнижается примернo на 1 мм рт.ст.).